DateTimeUTC,F1_A11,F1_S11,BsB_S11,BsG_S11,BsR_S11,BbsB_S11,BbsG_S11,BbsR_S11,BaB_A11,BaG_A11,BaR_A11,Tu_S11,T_S11,Uu_S11,U_S11,P_S11,T1_A11
2021-06-14T00:00:00Z,00000200,20000000,,,,,,,0000.00,0000.13,0000.19,16.9,23.8,04.0,02.6,0669.6,30.9
2021-06-14T00:01:00Z,00000200,20000000,,,,,,,-000.01,0000.37,0000.23,16.9,23.8,04.0,02.6,0669.6,30.9
2021-06-14T00:02:00Z,00000200,20000000,,,,,,,-000.18,-000.58,-000.20,16.9,23.8,04.0,02.6,0669.6,30.9
2021-06-14T00:03:00Z,00000200,60000000,,,,,,,0000.30,0000.67,0000.25,16.9,23.8,04.0,02.6,0669.6,30.9
2021-06-14T00:04:00Z,00000200,40000000,0000.64,0000.51,-000.07,-000.01,0000.28,-000.07,0000.50,0000.01,0000.01,17.0,23.6,04.0,02.7,0670.5,30.9
2021-06-14T00:05:00Z,00000200,00000000,0000.97,0000.56,0000.24,0000.43,-000.07,-000.14,0000.02,0000.28,0000.28,17.1,23.6,04.1,02.7,0670.6,30.9
2021-06-14T00:06:00Z,00000200,00000000,0000.49,0000.48,0000.26,0000.46,0000.19,-000.11,0000.53,0000.23,0000.27,17.1,23.6,04.1,02.7,0670.6,30.9
2021-06-14T00:07:00Z,00000200,00000000,0000.74,-000.22,0000.14,0000.41,0000.15,-000.24,0000.18,-000.01,-000.14,17.1,23.5,04.1,02.7,0670.6,30.9
2021-06-14T00:08:00Z,00000200,00000000,0000.72,0000.35,0000.08,0000.01,-000.08,-000.31,0000.05,0000.30,0000.36,17.1,23.5,04.2,02.8,0670.7,30.9
2021-06-14T00:09:00Z,00000200,00000000,0000.64,0000.27,-000.02,0000.11,0000.08,-000.26,0000.15,0000.44,0000.22,17.1,23.5,04.1,02.8,0670.6,30.9
2021-06-14T00:10:00Z,00000200,00000000,0001.18,0000.17,0000.09,0000.05,0000.18,0000.01,0000.37,-000.02,0000.19,17.1,23.5,04.1,02.7,0670.6,30.9
2021-06-14T00:11:00Z,00000200,00000000,0000.86,0000.07,0000.09,0000.01,0000.08,0000.06,0000.31,0000.18,0000.00,17.1,23.5,04.1,02.7,0670.6,30.9
2021-06-14T00:12:00Z,00000200,00000000,-000.10,0000.26,0000.22,0000.50,0000.10,0000.08,0000.30,0000.02,0000.35,17.1,23.5,04.0,02.7,0670.6,30.9
2021-06-14T00:13:00Z,00000200,00000000,0000.69,0000.31,0000.19,0000.47,0000.22,0000.31,0000.26,0000.67,0000.18,17.1,23.5,04.0,02.7,0670.7,30.9
2021-06-14T00:14:00Z,00000200,00000000,0000.89,0000.52,0000.05,0000.21,0000.27,-000.15,0000.15,0000.06,-000.05,17.1,23.5,04.0,02.7,0670.7,30.9
2021-06-14T00:15:00Z,00000200,00000000,-000.26,0000.15,-000.21,0000.42,0000.02,-000.11,0000.07,0000.22,0000.14,17.1,23.5,04.0,02.7,0670.6,30.9
2021-06-14T00:16:00Z,00000200,00000000,0000.77,0000.04,0000.26,0000.80,-000.00,-000.11,0000.34,0000.11,0000.34,17.1,23.5,04.0,02.7,0670.6,30.9
2021-06-14T00:17:00Z,00000200,00000000,0000.83,0000.41,0000.12,0000.39,0000.16,-000.03,0000.32,0000.06,0000.20,17.1,23.5,04.0,02.7,0670.7,30.9
2021-06-14T00:18:00Z,00000200,00000000,0000.57,0000.19,0000.23,0000.30,0000.10,0000.47,0000.07,0000.53,0000.19,17.1,23.5,04.0,02.7,0670.7,30.9
2021-06-14T00:19:00Z,00000200,00000000,0000.52,0000.42,0000.17,0000.29,0000.13,0000.08,0000.33,0000.24,0000.19,17.1,23.5,04.0,02.7,0670.7,30.9
2021-06-14T00:20:00Z,00000200,00000000,0001.09,0000.34,-000.11,0000.21,0000.13,-000.18,0000.35,0000.40,0000.24,17.1,23.5,03.9,02.7,0670.7,30.9
2021-06-14T00:21:00Z,00000200,00000000,0001.20,0000.15,0000.04,0000.40,0000.06,-000.08,0000.21,-000.17,0000.20,17.1,23.5,04.0,02.7,0670.7,30.9
2021-06-14T00:22:00Z,00000200,00000000,0000.86,0000.24,0000.01,0000.30,0000.19,-000.27,0000.13,0000.37,-000.18,17.1,23.5,04.0,02.7,0670.7,30.9
2021-06-14T00:23:00Z,00000200,00000000,0000.45,0000.34,0000.21,-000.00,0000.03,0000.19,0000.43,0000.16,0000.46,17.1,23.5,04.0,02.7,0670.7,30.9
2021-06-14T00:24:00Z,00000200,00000000,0000.25,0000.21,-000.05,-000.04,0000.18,0000.29,0000.20,0000.65,0000.16,17.1,23.5,03.9,02.6,0670.7,30.9
2021-06-14T00:25:00Z,00000200,00000000,0001.25,0000.06,0000.23,0000.15,0000.24,-000.18,0000.19,-000.38,0000.00,17.2,23.5,03.9,02.7,0670.8,30.9
2021-06-14T00:26:00Z,00000200,00000000,0000.30,0000.26,0000.19,0000.85,0000.40,-000.17,0000.42,0000.41,0000.30,17.2,23.6,03.9,02.6,0670.8,30.9
2021-06-14T00:27:00Z,00000200,00000000,0000.72,0000.40,0000.15,0000.49,-000.09,0000.26,-000.27,-000.06,0000.03,17.2,23.6,03.8,02.5,0670.7,31.0
2021-06-14T00:28:00Z,00000200,00000000,0000.87,0000.14,0000.32,0000.40,0000.05,0000.21,0000.31,0000.34,0000.25,17.2,23.6,03.7,02.5,0670.8,31.0
2021-06-14T00:29:00Z,00000200,00000000,0001.47,0000.23,0000.56,0000.66,-000.10,0000.29,-000.22,-000.21,-000.01,17.3,23.6,03.7,02.5,0670.8,30.9
2021-06-14T00:30:00Z,00000200,00000000,0000.28,0000.20,0000.03,0000.43,0000.18,0000.24,0000.70,0000.68,0000.37,17.3,23.6,03.7,02.5,0670.8,30.9
2021-06-14T00:31:00Z,00000200,00000000,0000.95,0000.23,0000.25,0000.54,0000.06,0000.09,0000.15,0000.29,0000.02,17.3,23.6,03.6,02.4,0670.8,30.9
2021-06-14T00:32:00Z,00000200,00000000,0001.11,0000.40,-000.11,0000.40,0000.08,-000.14,0000.55,0000.42,0000.11,17.2,23.6,03.7,02.5,0670.8,30.9
2021-06-14T00:33:00Z,00000200,00000000,0000.91,0000.15,0000.15,0000.18,0000.18,0000.09,0000.29,0000.03,0000.61,17.2,23.6,03.7,02.5,0670.8,30.9
2021-06-14T00:34:00Z,00000200,00000000,0000.77,0000.05,-000.20,0000.19,-000.01,0000.10,0000.07,0000.67,-000.27,17.2,23.6,03.8,02.6,0670.7,30.9
2021-06-14T00:35:00Z,00000200,00000000,0000.66,0000.63,-000.03,0000.27,0000.37,-000.11,0000.43,0000.26,0000.61,17.2,23.6,03.8,02.6,0670.8,30.9
2021-06-14T00:36:00Z,00000200,00000000,0000.65,0000.39,0000.24,0000.14,0000.12,0000.08,0000.31,-000.10,0000.34,17.2,23.6,03.9,02.6,0670.8,30.9
2021-06-14T00:37:00Z,00000200,00000000,0000.50,0000.34,0000.28,0000.12,0000.13,-000.28,0000.50,0001.05,0000.17,17.2,23.6,03.8,02.6,0670.8,30.9
2021-06-14T00:38:00Z,00000200,00000000,0000.02,0000.25,0000.47,0000.08,0000.23,0000.13,0000.03,-000.76,-000.22,17.2,23.6,03.8,02.5,0670.6,30.9
2021-06-14T00:39:00Z,00000200,00000000,0000.67,0000.24,-000.15,-000.06,-000.05,0000.14,-000.57,0000.14,0000.31,17.2,23.6,03.5,02.4,0670.6,30.9
2021-06-14T00:40:00Z,00000200,00000000,0000.72,0000.22,-000.28,0000.46,0000.24,0000.36,-000.20,-000.25,-000.62,17.2,23.6,03.5,02.3,0670.7,30.9
2021-06-14T00:41:00Z,00000200,00000000,0000.50,0000.49,-000.03,-000.10,0000.02,-000.03,0000.40,0000.08,0000.06,17.2,23.6,03.3,02.2,0670.7,30.9
2021-06-14T00:42:00Z,00000200,00000000,0000.20,-000.20,-000.09,0000.22,0000.14,-000.02,0000.17,0000.10,0000.33,17.2,23.6,03.3,02.2,0670.7,30.9
2021-06-14T00:43:00Z,00000200,00000000,0000.39,0000.04,0000.06,0000.39,0000.10,-000.01,0000.74,0000.60,0000.29,17.2,23.6,03.4,02.3,0670.7,30.9
2021-06-14T00:44:00Z,00000200,00000000,0000.37,0000.24,0000.41,0000.11,-000.05,0000.12,0000.39,0000.40,0000.36,17.2,23.6,03.5,02.4,0670.7,30.9
2021-06-14T00:45:00Z,00000200,00000000,0000.52,0000.40,0000.13,0000.64,-000.07,-000.12,-000.39,-000.10,-000.03,17.2,23.6,03.5,02.3,0670.7,30.9
2021-06-14T00:46:00Z,00000200,00000000,0001.17,0000.08,0000.10,0000.29,0000.15,0000.04,0000.86,0000.83,0000.59,17.2,23.6,03.5,02.4,0670.7,30.9
2021-06-14T00:47:00Z,00000200,00000000,0000.89,0000.17,0000.13,0000.58,0000.08,0000.10,0000.43,0000.48,0000.65,17.2,23.6,03.7,02.5,0670.8,30.9
2021-06-14T00:48:00Z,00000200,00000000,0000.71,0000.00,0000.00,0000.09,0000.07,-000.09,0000.45,0000.52,0000.26,17.2,23.6,03.8,02.5,0670.7,30.9
2021-06-14T00:49:00Z,00000200,00000000,0000.65,0000.29,0000.10,0000.51,-000.13,-000.12,0000.32,0000.08,0000.16,17.2,23.6,03.8,02.6,0670.7,30.9
2021-06-14T00:50:00Z,00000200,00000000,0001.13,0000.05,0000.39,0000.38,0000.34,0000.03,0000.35,0000.13,0000.21,17.2,23.6,03.8,02.6,0670.7,30.9
2021-06-14T00:51:00Z,00000200,00000000,0000.79,0000.46,0000.19,0000.73,-000.04,-000.15,0000.04,-000.00,-000.26,17.2,23.6,03.6,02.4,0670.7,30.9
2021-06-14T00:52:00Z,00000200,00000000,0000.87,0000.21,0000.10,-000.01,0000.26,-000.37,0000.34,0000.37,0000.27,17.2,23.5,03.7,02.5,0670.7,30.9
2021-06-14T00:53:00Z,00000200,00000000,0001.01,0000.43,0000.21,-000.07,0000.21,-000.09,0000.26,0000.10,0000.36,17.2,23.6,03.6,02.5,0670.7,30.9
2021-06-14T00:54:00Z,00000200,00000000,0000.62,0000.52,0000.11,0000.29,0000.08,-000.09,0000.28,0000.59,0000.60,17.2,23.6,03.7,02.5,0670.7,30.9
2021-06-14T00:55:00Z,00000200,00000000,0000.73,0000.27,0000.18,-000.07,0000.28,0000.00,0000.25,-000.25,-000.48,17.2,23.6,03.6,02.4,0670.7,30.9
2021-06-14T00:56:00Z,00000200,00000000,0000.02,0000.44,0000.14,0000.15,0000.05,-000.01,-000.19,0000.42,-000.11,17.2,23.5,03.7,02.5,0670.7,30.9
2021-06-14T00:57:00Z,00000200,40000000,,,,,,,0000.57,0000.35,0000.69,17.2,23.6,03.3,02.2,0670.7,30.9
2021-06-14T00:58:00Z,00000200,60000000,,,,,,,-000.03,-000.06,-000.09,16.9,23.7,03.7,02.4,0669.7,30.9
2021-06-14T00:59:00Z,00000200,20000000,,,,,,,0000.01,-000.20,-000.15,16.9,23.8,03.7,02.4,0669.7,30.9
